This demonstration page uses our WeatherBlox Daily Observations layout. Learn more.

Left ArrowRight Arrow

39.29038, -76.61219

Hourly Observations for November 11, 2020

Temp ( °F °C ) Dew Point ( °F °C ) Humidity (%) Winds ( mph kmh ) Pressure ( in mb ) Visibility ( mi km ) Precip ( " mm )
12:54 am 00:54 Clear 59 15 57 13.9 93 93 Calm 30.09 1019 10 16 0.00 0.00
1:54 am 01:54 Mostly Clear 62 16.7 58 14.4 86 86 Calm 30.06 1018 10 16 0.00 0.00
2:54 am 02:54 Mostly Clear 63 17.2 60 15.6 90 90 S 3 6 30.04 1017 10 16 0.00 0.00
3:24 am 03:24 Mostly Cloudy 64 17.8 60 15.6 87 87 SSE 3 6 30.05 1018 10 16 0.00 0.00
3:54 am 03:54 Mostly Cloudy 60 15.6 58 14.4 93 93 Calm 30.04 1017 10 16 0.00 0.00
4:54 am 04:54 Cloudy 65 18.3 62 16.7 90 90 SSE 3 6 30.04 1017 10 16 0.00 0.00
5:54 am 05:54 Cloudy 67 19.4 64 17.8 91 91 S 3 6 30.03 1017 10 16 0.00 0.00
6:54 am 06:54 Mostly Cloudy 68 20 65 18.3 90 90 S 5 7 30.02 1017 10 16 0.00 0.00
7:54 am 07:54 Cloudy 69 20.6 65 18.3 87 87 SSW 7 11 30.04 1017 10 16 0.00 0.00
8:54 am 08:54 Cloudy with Light Rain 69 20.6 66 18.9 90 90 Calm 30.05 1018 9 14 0.02 0.51
9:54 am 09:54 Cloudy with Light Rain 69 20.6 66 18.9 90 90 SSW 3 6 30.04 1017 4 6 0.04 1.02
10:39 am 10:39 Cloudy with Light Rain 69 20.6 66 18.9 90 90 SSW 7 11 30.03 1017 3 5 0.10 2.54
10:47 am 10:47 Cloudy with Light Rain 69 20.6 66 18.9 90 90 SSW 6 9 30.03 1017 3 5 0.12 3.05
10:54 am 10:54 Cloudy with Rain 69 20.6 66 18.9 90 90 SSW 5 7 30.02 1017 4 6 0.14 3.56
11:54 am 11:54 Mostly Cloudy with Light Rain 69 20.6 66 18.9 90 90 VRB 5 7 30.00 1016 6 10 0.10 2.54
12:54 pm 12:54 Cloudy with Light Rain 68 20 65 18.3 90 90 S 7 11 29.96 1015 4 6 0.09 2.29
1:45 pm 13:45 Cloudy with Light Rain 68 20 65 18.3 90 90 SSE 8 13 29.95 1014 7 11 0.08 2.03
1:54 pm 13:54 Cloudy with Light Rain 68 20 65 18.3 90 90 VRB 7 11 29.94 1014 7 11 0.09 2.29
2:33 pm 14:33 Cloudy with Light Rain 69 20.6 66 18.9 90 90 undefined N/A 29.93 1013 9 14 0.02 0.51
2:54 pm 14:54 Cloudy with Light Rain 69 20.6 66 18.9 90 90 SSE 6 9 29.92 1013 8 13 0.03 0.76
3:48 pm 15:48 Cloudy with Rain 70 21 66 19 88 88 S 10 17 29.91 1013 2 3 0.08 2.03
3:54 pm 15:54 Cloudy with Rain 69 20.6 66 18.9 90 90 SSE 7 11 29.91 1013 2 3 0.14 3.56
3:58 pm 15:58 Cloudy with Rain 69 20.6 66 18.9 90 90 SSE 7 11 29.91 1013 2 2 0.01 0.25
4:25 pm 16:25 Cloudy with Light Rain 69 20.6 67 19.4 93 93 S 7 11 29.91 1013 3 5 0.09 2.29
4:54 pm 16:54 Cloudy with Mist and Fog 69 20.6 67 19.4 93 93 S 6 9 29.91 1013 5 8 0.09 2.29
5:54 pm 17:54 Cloudy with Light Rain 70 21.1 67 19.4 90 90 SW 5 7 29.91 1013 6 10 0.01 0.25
6:42 pm 18:42 Cloudy with Light Rain 70 21.1 68 20 93 93 WSW 7 11 29.93 1013 3 4 0.13 3.30
6:54 pm 18:54 Cloudy with Heavy Rain 69 20.6 66 18.9 90 90 SSW 7 11 29.91 1013 2 3 0.16 4.06
7:05 pm 19:05 Cloudy with Light Rain 69 20.6 67 19.4 93 93 SW 5 7 29.93 1013 6 10 0.11 2.79
7:26 pm 19:26 Cloudy with Light Rain 69 20.6 67 19.4 93 93 W 3 6 29.93 1013 6 10 0.12 3.05
7:54 pm 19:54 Cloudy 69 20.6 67 19.4 93 93 Calm 29.92 1013 7 11 0.13 3.30
8:03 pm 20:03 Cloudy with Light Rain 69 20.6 67 19.4 93 93 Calm 29.92 1013 3 4 0.01 0.25
8:10 pm 20:10 Cloudy with Heavy Rain 69 20.6 67 19.4 93 93 Calm 29.92 1013 2 2 0.13 3.30
8:18 pm 20:18 Cloudy with Light Rain 69 20.6 67 19.4 93 93 SE 3 6 29.93 1013 2 3 0.16 4.06
8:25 pm 20:25 Cloudy with Heavy Rain 69 20.6 67 19.4 93 93 Calm 29.93 1013 1 2 0.22 5.59
8:37 pm 20:37 Cloudy with Heavy Rain 69 20.6 67 19.4 93 93 Calm 29.92 1013 1 2 0.44 11.18
8:42 pm 20:42 Cloudy with Heavy Rain 69 20.6 67 19.4 93 93 Calm 29.92 1013 1 2 0.50 12.70
8:54 pm 20:54 Cloudy with Rain 69 20.6 67 19.4 93 93 ESE 6 9 29.91 1013 2 3 0.59 14.99
8:59 pm 20:59 Cloudy with Light Rain 68 20 67 19.4 96 96 ESE 5 7 29.91 1013 4 6 0.01 0.25
9:17 pm 21:17 Cloudy with Mist and Fog 69 20.6 67 19.4 93 93 Calm 29.93 1013 6 10 0.02 0.51
9:41 pm 21:41 Cloudy with Light Rain 69 20.6 67 19.4 93 93 Calm 29.92 1013 6 10 0.02 0.51
9:54 pm 21:54 Cloudy with Light Rain 69 20.6 67 19.4 93 93 Calm 29.91 1013 6 10 0.03 0.76
10:10 pm 22:10 Cloudy with Light Rain 69 20.6 67 19.4 93 93 Calm 29.91 1013 4 6 0.02 0.51
10:43 pm 22:43 Cloudy with Light Rain 69 20.6 67 19.4 93 93 Calm 29.90 1012 2 3 0.08 2.03
10:54 pm 22:54 Cloudy with Light Rain 69 20.6 67 19.4 93 93 Calm 29.90 1012 2 3 0.09 2.29
11:20 pm 23:20 Cloudy with Light Rain 69 20.6 67 19.4 93 93 Calm 29.89 1012 2 3 0.03 0.76
11:54 pm 23:54 Cloudy with Light Rain 69 20.6 68 20 96 96 SE 7 11 29.87 1012 2 3 0.15 3.81

Powered by AerisWeather